Waarnemingen

Advertentie
Mijn weer
Lossiemouth, Groot Brittannië (3068): temperatuur & dauwpunt: 30.06.2020 21:00:00 - 06.07.2020 21:00:00 (BST)Lossiemouth, Groot Brittannië (3068): windsnelheid & windstoten: 30.06.2020 21:00:00 - 06.07.2020 21:00:00 (BST)Lossiemouth, Groot Brittannië (3068): windrichting: 30.06.2020 21:00:00 - 06.07.2020 21:00:00 (BST)Lossiemouth, Groot Brittannië (3068): luchtdruk: 30.06.2020 21:00:00 - 06.07.2020 21:00:00 (BST)Lossiemouth, Groot Brittannië (3068): zicht: 30.06.2020 21:00:00 - 06.07.2020 21:00:00 (BST)Lossiemouth, Groot Brittannië (3068): neerslag: 30.06.2020 21:00:00 - 06.07.2020 21:00:00 (BST)
Datum & Tijd tt [°C] td [°C] ff [km/u] ff [kn] fx [km/u] fx [kn] dd ppp [hPa] vv [km] rr [mm]
06.07.2020 21:00:00 - - - - - - - - - -
06.07.2020 20:00:00 13,4 5,9 37 20 54 29 W 1015,3 10 0,0
06.07.2020 19:00:00 13,6 6,5 37 20 50 27 W 1015,3 10 0,0
06.07.2020 18:00:00 13,9 7,1 37 20 57 31 WZW 1015,5 10 0,0
06.07.2020 17:00:00 14,6 6,9 34 18 46 25 W 1015,3 10 0,0
06.07.2020 16:00:00 14,6 6,5 28 15 - - W 1015,5 10 0,0
06.07.2020 15:00:00 16,0 7,0 35 19 - - WNW 1015,3 10 0,0
06.07.2020 14:00:00 13,9 7,9 28 15 46 25 WNW 1015,4 10 0,0
06.07.2020 13:00:00 15,3 8,2 37 20 46 25 WNW 1015,0 10 0,0
06.07.2020 12:00:00 14,1 5,9 29 16 - - NW 1014,5 10 0,0
06.07.2020 11:00:00 12,5 7,7 29 16 - - WNW 1014,4 10 0,0
06.07.2020 10:00:00 12,6 6,7 28 15 52 28 NW 1013,5 10 0,0
06.07.2020 09:00:00 11,7 6,1 35 19 52 28 NW 1012,4 50 0,0
06.07.2020 08:00:00 11,4 7,4 31 17 - - NW 1011,1 10 0,0
06.07.2020 07:00:00 11,1 9,0 35 19 50 27 NW 1009,8 10 0,8
06.07.2020 06:00:00 11,3 8,9 37 20 52 28 NW 1008,2 10 0,0
06.07.2020 05:00:00 11,2 9,1 31 17 - - NW 1006,8 10 0,0
06.07.2020 04:00:00 11,4 9,1 28 15 46 25 WNW 1005,8 10 0,0
06.07.2020 03:00:00 11,3 8,5 34 18 - - NW 1004,7 10 0,0
06.07.2020 02:00:00 11,2 9,3 29 16 - - WNW 1003,5 10 0,4
06.07.2020 01:00:00 11,3 8,2 29 16 - - W 1002,5 10 0,0
06.07.2020 00:00:00 11,4 8,6 26 14 - - W 1001,6 10 0,0
05.07.2020 23:00:00 11,6 8,6 26 14 - - WNW 1000,7 10 0,8
05.07.2020 22:00:00 10,9 9,3 22 12 - - NW 999,8 10 0,0
05.07.2020 21:00:00 12,1 9,1 28 15 - - W 998,7 10 0,0
05.07.2020 20:00:00 13,1 8,6 24 13 - - NW 997,6 10 0,2
05.07.2020 19:00:00 13,2 10,5 28 15 - - WNW 996,5 10 0,0
05.07.2020 18:00:00 13,9 9,3 16 9 - - W 996,0 10 0,2
05.07.2020 17:00:00 13,4 9,2 29 16 50 27 W 995,6 7 0,2
05.07.2020 16:00:00 15,8 8,0 28 15 48 26 WZW 995,2 10 0,0
05.07.2020 15:00:00 14,9 8,6 29 16 52 28 WZW 995,1 10 0,0
05.07.2020 14:00:00 15,5 8,1 34 18 54 29 W 994,9 10 0,0
05.07.2020 13:00:00 13,8 9,5 28 15 61 33 W 995,0 10 0,2
05.07.2020 12:00:00 13,9 8,8 34 18 48 26 W 994,6 10 0,0
05.07.2020 11:00:00 13,1 9,0 28 15 - - W 994,3 10 0,0
05.07.2020 10:00:00 12,3 9,5 26 14 - - WZW 994,3 40 0,0
05.07.2020 09:00:00 10,7 9,3 21 11 - - W 994,0 35 0,4
05.07.2020 08:00:00 11,8 8,3 26 14 - - W 993,4 10 0,0
05.07.2020 07:00:00 11,2 9,3 24 13 - - W 992,6 60 0,0
05.07.2020 06:00:00 11,0 9,7 24 13 - - W 991,7 10 0,0
05.07.2020 05:00:00 11,2 10,0 15 8 - - NW 990,9 10 0,2
05.07.2020 04:00:00 10,8 9,8 15 8 - - NNW 990,5 10 0,2
05.07.2020 03:00:00 10,8 9,8 15 8 - - NNO 990,4 10 0,8
05.07.2020 02:00:00 10,8 9,4 13 7 - - ONO 991,1 7 1,6
05.07.2020 01:00:00 11,1 10,0 13 7 - - ONO 992,5 6 3,0
05.07.2020 00:00:00 11,6 10,3 15 8 - - O 993,4 6 2,6
04.07.2020 23:00:00 12,1 10,9 5 3 - - OZO 995,8 4,0 1,8
04.07.2020 22:00:00 12,9 10,5 9 5 - - O 996,5 10 0,0
04.07.2020 21:00:00 13,1 10,6 11 6 - - O 997,4 10 0,0
04.07.2020 20:00:00 13,3 9,5 8 4 - - ONO 999,0 10 0,0
04.07.2020 19:00:00 13,8 9,5 4 2 - - W 999,5 10 0,0
04.07.2020 18:00:00 13,2 10,4 8 4 - - WNW 1000,4 10 0,4
04.07.2020 17:00:00 12,2 10,4 26 14 - - NW 1001,3 3,0 0,0
04.07.2020 16:00:00 14,9 10,5 11 6 - - WNW 1001,2 10 0,0
04.07.2020 15:00:00 16,0 9,9 16 9 - - WZW 1001,2 10 0,0
04.07.2020 14:00:00 15,0 10,8 11 6 - - ZZW 1001,7 10 0,2
04.07.2020 13:00:00 13,4 10,2 8 4 - - W 1002,1 10 0,0
04.07.2020 12:00:00 13,5 10,7 9 5 - - ZW 1002,1 10 0,6
04.07.2020 11:00:00 12,4 10,6 5 3 - - WZW 1002,2 10 0,6
04.07.2020 10:00:00 13,0 10,0 5 3 - - Z 1002,0 10 0,0
04.07.2020 09:00:00 12,6 9,4 9 5 - - Z 1002,0 10 0,0
04.07.2020 08:00:00 12,2 9,2 8 4 - - WZW 1002,4 55 0,0
04.07.2020 07:00:00 11,9 9,3 5 3 - - ZZO 1002,5 10 0,0
04.07.2020 06:00:00 9,8 7,9 13 7 - - ZW 1002,8 10 0,0
04.07.2020 05:00:00 8,0 6,5 11 6 - - ZW 1002,6 10 0,0
04.07.2020 04:00:00 6,9 5,3 9 5 - - ZW 1002,5 10 0,0
04.07.2020 03:00:00 9,2 7,2 8 4 - - ZZO 1002,3 10 0,0
04.07.2020 02:00:00 8,2 6,6 8 4 - - WZW 1002,5 10 0,0
04.07.2020 01:00:00 9,1 7,8 8 4 - - ZW 1002,6 10 0,0
04.07.2020 00:00:00 11,0 8,8 11 6 - - W 1002,4 10 0,0
03.07.2020 23:00:00 12,1 10,4 11 6 - - W 1002,4 30 0,0
03.07.2020 22:00:00 12,4 10,7 8 4 - - WZW 1001,7 10 0,0
03.07.2020 21:00:00 12,4 10,5 13 7 - - W 1001,4 10 0,0
03.07.2020 20:00:00 12,7 10,9 18 10 - - WZW 1001,1 10 0,0
03.07.2020 19:00:00 12,8 11,1 21 11 - - W 1001,0 10 0,2
03.07.2020 18:00:00 13,1 12,0 24 13 - - W 1000,6 10 1,2
03.07.2020 17:00:00 13,5 12,6 9 5 - - W 1000,5 10 1,4
03.07.2020 16:00:00 13,4 11,8 5 3 - - Z 1000,1 10 1,6
03.07.2020 15:00:00 13,3 10,6 9 5 - - ZZO 1000,3 6 0,4
03.07.2020 14:00:00 13,9 9,8 11 6 - - ZZO 1000,6 10 0,0
03.07.2020 13:00:00 13,1 9,6 15 8 - - ZO 1001,2 30 0,0
03.07.2020 12:00:00 13,1 8,6 18 10 - - ZO 1001,9 10 0,0
03.07.2020 11:00:00 12,3 7,4 18 10 - - ZO 1002,4 10 0,0
03.07.2020 10:00:00 11,7 8,2 13 7 - - ZO 1003,0 10 0,0
03.07.2020 09:00:00 10,4 8,1 11 6 - - ZZO 1003,7 10 0,2
03.07.2020 08:00:00 9,9 7,7 11 6 - - Z 1004,4 10 0,0
03.07.2020 07:00:00 9,0 7,2 5 3 - - Z 1005,2 10 0,2
03.07.2020 06:00:00 8,7 6,6 4 2 - - ZZW 1005,8 10 0,2
03.07.2020 05:00:00 9,1 6,8 11 6 - - ZW 1006,4 10 0,0
03.07.2020 04:00:00 10,0 6,4 21 11 - - WZW 1006,8 10 0,0
03.07.2020 03:00:00 10,7 6,9 21 11 - - ZW 1006,8 10 0,0
03.07.2020 02:00:00 11,3 7,4 9 5 - - WZW 1007,2 10 0,0
03.07.2020 01:00:00 10,8 8,8 11 6 - - ZW 1007,9 10 0,0
03.07.2020 00:00:00 11,1 8,0 8 4 - - W 1008,5 40 0,0
02.07.2020 23:00:00 11,4 7,9 8 4 - - ZZW 1008,9 40 0,0
02.07.2020 22:00:00 11,9 7,4 5 3 - - Z 1009,3 40 0,0
02.07.2020 21:00:00 12,6 7,4 9 5 - - ZO 1009,5 10 0,0
02.07.2020 20:00:00 13,3 6,1 8 4 - - OZO 1009,9 10 0,0
02.07.2020 19:00:00 14,4 5,0 9 5 - - O 1009,9 10 0,0
02.07.2020 18:00:00 14,2 4,3 9 5 - - NNO 1010,0 10 0,0
02.07.2020 17:00:00 14,3 4,1 11 6 - - NO 1010,3 10 0,0
02.07.2020 16:00:00 14,8 3,9 9 5 - - N 1010,5 10 0,0
02.07.2020 15:00:00 14,0 3,8 8 4 - - N 1010,9 10 0,0
02.07.2020 14:00:00 13,9 3,4 13 7 - - NW 1011,2 10 0,0
02.07.2020 13:00:00 12,9 4,0 15 8 - - NW 1011,3 10 0,0
02.07.2020 12:00:00 12,5 4,2 15 8 - - NW 1011,1 10 0,0
02.07.2020 11:00:00 11,8 3,6 11 6 - - NW 1011,2 10 0,0
02.07.2020 10:00:00 11,5 3,8 11 6 - - NW 1011,0 10 0,0
02.07.2020 09:00:00 11,1 3,7 15 8 - - NW 1010,7 10 0,0
02.07.2020 08:00:00 10,5 5,6 15 8 - - WNW 1010,5 10 0,0
02.07.2020 07:00:00 10,4 5,2 9 5 - - WNW 1010,0 10 0,0
02.07.2020 06:00:00 10,0 5,0 9 5 - - NW 1009,7 10 0,0
02.07.2020 05:00:00 9,8 5,3 11 6 - - N 1009,5 10 0,0
02.07.2020 04:00:00 9,8 5,5 9 5 - - NNW 1009,6 10 0,0
02.07.2020 03:00:00 9,8 5,0 11 6 - - N 1009,5 10 0,0
02.07.2020 02:00:00 9,9 5,1 13 7 - - N 1009,6 10 0,0
02.07.2020 01:00:00 10,4 5,2 15 8 - - N 1009,3 10 0,0
02.07.2020 00:00:00 10,6 5,1 16 9 - - N 1009,2 10 0,0
01.07.2020 23:00:00 11,1 5,8 9 5 - - NO 1009,0 10 0,0
01.07.2020 22:00:00 10,8 6,1 9 5 - - NNO 1008,6 10 0,0
01.07.2020 21:00:00 11,6 6,0 11 6 - - NO 1008,1 10 0,0
01.07.2020 20:00:00 12,5 5,9 11 6 - - NO 1007,8 10 0,0
01.07.2020 19:00:00 13,1 5,5 13 7 - - NNO 1007,6 10 0,0
01.07.2020 18:00:00 13,1 5,4 15 8 - - NO 1007,5 50 0,0
01.07.2020 17:00:00 12,7 5,9 15 8 - - NO 1007,4 10 0,0
01.07.2020 16:00:00 13,5 4,8 15 8 - - NO 1007,2 10 0,0
01.07.2020 15:00:00 13,7 6,4 18 10 - - NO 1006,9 10 0,0
01.07.2020 14:00:00 12,9 5,4 15 8 - - NO 1006,6 10 0,0
01.07.2020 13:00:00 13,2 6,6 18 10 - - NNO 1006,3 10 0,0
01.07.2020 12:00:00 13,2 6,8 18 10 - - NNO 1005,9 10 0,0
01.07.2020 11:00:00 13,1 5,3 16 9 - - NNO 1005,5 35 0,0
01.07.2020 10:00:00 12,4 5,5 16 9 - - NO 1005,3 10 0,0
01.07.2020 09:00:00 11,7 6,3 21 11 - - NO 1005,0 10 0,0
01.07.2020 08:00:00 11,2 7,6 26 14 - - NO 1004,3 10 0,0
01.07.2020 07:00:00 10,4 9,2 31 17 - - NNO 1004,0 10 0,0
01.07.2020 06:00:00 10,7 10,1 28 15 - - NNO 1003,5 10 0,2
01.07.2020 05:00:00 11,0 10,1 26 14 - - NNO 1003,3 10 0,2
01.07.2020 04:00:00 11,3 10,4 26 14 - - NNO 1003,0 7 0,2
01.07.2020 03:00:00 11,4 10,5 22 12 - - NNO 1003,0 7 0,2
01.07.2020 02:00:00 11,9 10,2 13 7 - - N 1003,0 10 0,0
01.07.2020 01:00:00 12,0 9,8 13 7 - - NNW 1003,1 35 0,0
01.07.2020 00:00:00 12,2 10,1 13 7 - - N 1003,0 10 0,0
30.06.2020 23:00:00 12,3 10,6 21 11 - - NNO 1002,9 10 0,2
30.06.2020 22:00:00 12,9 12,3 9 5 - - NNW 1002,6 10 0,4
30.06.2020 21:00:00 13,3 11,9 5 3 - - W 1002,1 10 0,0

tt = temperatuur
td = dauwpunt
ff = windsnelheid
fx = windstoten
dd = windrichting
ppp = luchtdruk
vv = zicht
rr = neerslag

Weerstations in de omgeving